Torna al catalogo

CZ-3C DEB

AttivoGTO
NORAD 39349·DEBRIS·🇨🇳 China

Lanciato Oct 31, 2010 da Xichang Satellite Launch Center

Loading…

TLE

ObsoletoSource: Space-Track

Epoca: Sep 14, 2026, 07:58 UTC

1 39349U 10057P   26257.33248471 -.00000069  00000-0  11380-2 0  9996
2 39349  20.6367 315.5504 7139501  52.6036   1.4080  2.30231173 99828

Traccia CZ-3C DEB in tempo reale con AllMySat

Download on the App Store